Weather in Raurkela

India     22°14′23″N   84°48′28″E
temp.,
°C
wind,
m/s
gust,
m/s
humid.,
%
clouds,
%
prec.,
mm/h
press.,
hPa
HPBL,
m
5 march, fri
fri523:30+18nnw11190 0.0 101323
02:30+16sse01240 0.0 101223
05:30+15sse11262 0.0 101223
08:30+25w12160 0.0 1014297
11:30+36w6870 0.0 10122888
14:30+37wsw69799 0.0 10093622
17:30+32sw471084 0.0 1008167
20:30+23ssw231740 0.0 101024
6 march, sat
sat623:30+20wsw222048 0.0 101223
02:30+17se112519 0.0 101023
05:30+15se112730 0.0 101123
08:30+25nnw22160 0.0 1014295
11:30+35wsw1294 0.0 10121305
14:30+37w56629 0.0 10083366
17:30+32sw22933 0.0 100824
20:30+23wsw221436 0.0 101124
7 march, sun
sun723:30+18wnw011731 0.0 101223
02:30+16n111824 0.0 101123
05:30+15e111912 0.0 101123
08:30+25nne11120 0.0 1014261
11:30+36s1260 0.0 10121491
14:30+37wnw3460 0.0 10083198
17:30+33ssw23817 0.0 100825
20:30+25w23120 0.0 101124
8 march, mon
mon823:30+20s11160 0.0 101223
02:30+18ne11200 0.0 101023
05:30+16e11230 0.0 101123
08:30+26ese11140 0.0 1014275
11:30+37sw2390 0.0 10121299
14:30+40wnw4370 0.0 10084398
17:30+35w3480 0.0 100851
20:30+27sw23130 0.0 101124
9 march, tue
tue923:30+22s24480 0.0 101156
02:30+19se126026 0.0 101023
05:30+18s115828 0.0 101123
08:30+28s23320 0.0 1013393
11:30+38wsw66140 0.0 10111722
14:30+40wsw5580 0.0 10074421
17:30+36ssw46100 0.0 1007140
20:30+28ssw34140 0.0 101044